KMDRIDGE9 Weather Reports


time (UTC)temp
C
wind
direction
speed
KPH
gust
KPH
rain 1hr
cm
rain 24hr
cm
rain mn
cm
humidity
%
barometer
mb
20200803144649 31 218 6.4 19.3 0.00 0.00 0.00 43 1018.3
20200803143123 31 217 4.8 16.1 0.00 0.00 0.00 45 1018.2
20200803141629 31 222 3.2 14.5 0.00 0.00 0.00 42 1018.2
20200803140110 30 169 3.2 14.5 0.00 0.00 0.00 36 1018.3
20200803134723 29 0 4.8 16.1 0.00 0.00 0.00 25 1018.4
20200803133218 29 187 4.8 14.5 0.00 0.00 0.00 21 1018.4
20200803131637 29 213 4.8 16.1 0.00 0.00 0.00 24 1018.3
20200803130153 30 183 6.4 14.5 0.00 0.00 0.00 28 1018.2
20200803124707 29 233 3.2 14.5 0.00 0.00 0.00 20 1018.1
20200803123131 28 188 4.8 14.5 0.00 0.00 0.00 11 1018.2
20200803121637 27 183 3.2 19.3 0.00 0.00 0.00 3 1018.1
20200803120207 27 205 4.8 16.1 0.00 0.00 0.00 1018.0
20200803114654 27 0 3.2 12.9 0.00 0.00 0.00 1017.9
20200803113118 27 196 3.2 8.0 0.00 0.00 0.00 1017.6
20200803111821 26 224 3.2 11.3 0.00 0.00 0.00 1017.6
20200803110146 26 250 3.2 12.9 0.00 0.00 0.00 1017.5
20200803104734 25 205 3.2 9.7 0.00 0.00 0.00 1017.3
20200803103111 25 214 6.4 11.3 0.00 0.00 0.00 1017.0
20200803101720 25 202 3.2 9.7 0.00 0.00 0.00 1016.8
20200803100159 25 219 4.8 12.9 0.00 0.00 0.00 1016.7
20200803094724 25 253 4.8 16.1 0.00 0.00 0.00 1016.7
20200803093113 26 230 8.0 16.1 0.00 0.00 0.00 1016.7
20200803091647 26 259 4.8 14.5 0.00 0.00 0.00 1016.3
20200803090146 26 239 8.0 25.7 0.00 0.00 0.00 1016.3
20200803084715 26 254 11.3 19.3 0.00 0.00 0.00 1016.1
20200803083129 26 230 4.8 17.7 0.00 0.00 0.00 1015.9
20200803081639 26 228 6.4 17.7 0.00 0.00 0.00 1015.9
20200803080123 26 226 6.4 16.1 0.00 0.00 0.00 1015.7
20200803074732 26 211 4.8 14.5 0.00 0.00 0.00 1015.6
20200803073212 26 189 4.8 16.1 0.00 0.00 0.00 1015.6
20200803071650 26 211 6.4 17.7 0.00 0.00 0.00 1015.5
20200803070056 26 198 4.8 14.5 0.00 0.00 0.00 1015.6
20200803064644 26 191 4.8 17.7 0.00 0.00 0.00 1015.2
20200803063208 26 197 4.8 16.1 0.00 0.00 0.00 1015.1
20200803061702 26 229 3.2 11.3 0.00 0.00 0.00 1015.2
20200803060127 26 213 3.2 9.7 0.00 0.00 0.00 1015.4
20200803054617 26 237 1.6 8.0 0.00 0.00 0.00 1015.4
20200803053206 26 242 1.6 11.3 0.00 0.00 0.00 1015.1
20200803051609 26 205 4.8 9.7 0.00 0.00 0.00 1014.9
20200803050147 26 188 4.8 9.7 0.00 0.00 0.00 1014.7
20200803044630 26 196 4.8 9.7 0.00 0.00 0.00 1014.8
20200803043134 27 191 3.2 9.7 0.00 0.00 0.00 1014.8
20200803041600 27 199 3.2 8.0 0.00 0.00 0.00 1014.7
20200803040158 27 214 3.2 8.0 0.00 0.00 0.00 1014.6
20200803034620 27 200 1.6 8.0 0.00 0.00 0.00 1014.6
20200803033201 27 272 4.8 16.1 0.00 0.00 0.00 3 1014.6
20200803031704 27 290 3.2 11.3 0.00 0.00 0.00 1014.7
20200803030138 28 207 3.2 14.5 0.00 0.00 0.00 1014.6
20200803024632 28 205 3.2 9.7 0.00 0.00 0.00 1014.6
20200803023136 28 210 4.8 12.9 0.00 0.00 0.00 1014.6
20200803021629 28 250 6.4 12.9 0.00 0.00 0.00 1014.6
20200803020154 28 221 3.2 12.9 0.00 0.00 0.00 1014.4
20200803014704 28 243 1.6 8.0 0.00 0.00 0.00 2 1013.9
20200803013240 28 236 4.8 8.0 0.00 0.00 0.00 7 1013.7
20200803011642 28 197 0.0 4.8 0.00 0.00 0.00 25 1013.6
20200803010201 29 0 0.0 3.2 0.00 0.00 0.00 34 1013.2
20200803004701 29 0 1.6 6.4 0.00 0.00 0.00 42 1013.1
20200803003141 30 201 3.2 9.7 0.00 0.00 0.00 46 1013.2
20200803001659 30 213 3.2 11.3 0.00 0.00 0.00 47 1013.1
20200803000152 30 188 4.8 12.9 0.00 0.00 0.00 49 1013.0
20200802234659 30 184 4.8 17.7 0.00 0.00 0.00 50 1012.8
20200802233139 31 146 9.7 25.7 0.00 0.00 0.00 38 1012.7
20200802231713 31 188 12.9 29.0 0.00 0.00 0.00 25 1012.6
20200802230156 32 173 8.0 20.9 0.00 0.00 0.00 27 1012.3
20200802224639 32 173 6.4 19.3 0.00 0.00 0.00 30 1012.2
20200802223302 32 182 6.4 24.1 0.00 0.00 0.00 33 1012.3
20200802221634 32 209 6.4 19.3 0.00 0.00 0.00 36 1012.2
20200802220131 32 159 8.0 27.4 0.00 0.00 0.00 42 1012.2
20200802214719 33 181 8.0 24.1 0.00 0.00 0.00 47 1012.2
20200802213216 33 193 11.3 29.0 0.00 0.00 0.00 47 1012.1
20200802211707 33 180 11.3 32.2 0.00 0.00 0.00 47 1012.0
20200802210148 33 207 11.3 24.1 0.00 0.00 0.00 49 1012.1
20200802204622 34 192 12.9 24.1 0.00 0.00 0.00 49 1012.1
20200802203210 35 186 11.3 32.2 0.00 0.00 0.00 49 1012.2
20200802201647 34 201 8.0 27.4 0.00 0.00 0.00 50 1012.2
20200802200135 35 171 11.3 24.1 0.00 0.00 0.00 50 1012.3
20200802194617 35 184 4.8 22.5 0.00 0.00 0.00 50 1012.4
20200802193208 35 209 8.0 20.9 0.00 0.00 0.00 51 1012.5
20200802191723 34 223 9.7 24.1 0.00 0.00 0.00 50 1012.6
20200802190107 34 182 8.0 25.7 0.00 0.00 0.00 50 1012.7
20200802184732 35 175 9.7 24.1 0.00 0.00 0.00 50 1012.8
20200802183139 34 195 9.7 32.2 0.00 0.00 0.00 50 1012.8
20200802181631 34 197 14.5 27.4 0.00 0.00 0.00 50 1012.8
20200802180059 34 220 11.3 29.0 0.00 0.00 0.00 50 1012.9
20200802174648 34 259 9.7 22.5 0.00 0.00 0.00 50 1012.9
20200802173142 34 192 11.3 30.6 0.00 0.00 0.00 50 1012.9
20200802171717 33 167 8.0 27.4 0.00 0.00 0.00 49 1012.9
20200802170142 33 211 4.8 19.3 0.00 0.00 0.00 43 1013.1
20200802164656 32 187 11.3 27.4 0.00 0.00 0.00 37 1013.1
20200802163129 31 147 1.6 6.4 0.00 0.00 0.00 3 1013.1
20200802161640 32 138 3.2 11.3 0.00 0.00 0.00 24 1013.3
20200802160215 32 138 4.8 14.5 0.00 0.00 0.00 15 1013.4
20200802154642 31 156 8.0 16.1 0.00 0.00 0.00 20 1013.4
20200802153147 30 193 6.4 19.3 0.00 0.00 0.00 1 1013.6
20200802151700 30 237 4.8 16.1 0.00 0.00 0.00 1013.7
20200802150146 29 202 8.0 19.3 0.00 0.00 0.00 1013.9